Powrót do katalogu

CZ-3B DEB

AktywnyGTO
NORAD 40160·DEBRIS·🇨🇳 China

Wystrzelony Sep 4, 2010 z Xichang Satellite Launch Center

Loading…

TLE

NieaktualneSource: Space-Track

Epoka: Sep 12, 2026, 02:24 UTC

1 40160U 10042M   26255.10060916 -.00000044  00000-0  00000-0 0  9990
2 40160  26.4999 235.9899 7283973  24.6907   4.9675  1.89894590 88879

Śledź CZ-3B DEB w czasie rzeczywistym z AllMySat

Download on the App Store